GPS BIIF-12

Last updated on Tue Sep 16 2025 00:02:34 GMT+0000 (Coordinated Universal Time)

1 41328U 16007A 25258.14520622 .00000008 00000+0 00000+0 0 9992 2 41328 55.3507 100.3729 0088593 242.5271 116.6397 2.00565322 70323
UTC large
Height (km)
Speed (km/s)
/
Latitude / Longitude
Inclination (degrees)
Orbital Period (minutes)
Azimuth
Elevation
Range (km)
Doppler Factor

Next 0 passes for location: London (51.5072 / 0.1276)

Sorry there are no passes over London.